Hamilton, OH

12:36 AM EDT on May 01, 2017 (GMT -0400)
Butler County Regional

Weather History for KHAO - June, 2013

Change the Weather History Date:

Friday, June 28, 2013

  Actual Average (KLUK) Record (KLUK)
Temperature  
Mean Temperature 75 °F -  
Max Temperature 86 °F 85 °F 102 °F (2012)
Min Temperature 64 °F 63 °F 52 °F (1950)
Cooling Degree Days 10    
Growing Degree Days 25 (Base 50)    
Moisture  
Dew Point 64 °F    
Average Humidity 73    
Maximum Humidity 96    
Minimum Humidity 40    
Precipitation  
Precipitation 0.15 in - - ()
Sea Level Pressure  
Sea Level Pressure 29.66 in    
Wind  
Wind Speed 7 mph (WNW)    
Max Wind Speed 22 mph    
Max Gust Speed 33 mph    
Visibility 9 miles    
Events Rain , Thunderstorm    
Averages and records for this station are not official NWS values.
T = Trace of Precipitation, MM = Missing Value Source: NWS Daily Summary

Daily Weather History Graph

Daily Weather History Graph

Search for Another Location

Airport or City:

Trip Planner

Search our weather history database for the weather conditions in past years. The results will help you decide how hot, cold, wet, or windy it might be!

Date:

Astronomy

Jun. 28, 2013 Rise Set
Actual Time 6:13 AM EDT 9:08 PM EDT
Civil Twilight 5:41 AM EDT 9:41 PM EDT
Nautical Twilight 5:00 AM EDT 10:22 PM EDT
Astronomical Twilight 4:13 AM EDT 11:09 PM EDT
Moon 12:07 AM EDT (6/28) 12:18 PM EDT (6/28)
Length of Visible Light 15h 59m
Length of Day
14h 55m
Waning Gibbous, 66% of the Moon is Illuminated
Jun 28
Waning Gibbous
Jun 30
Last Quarter
Jul 8
New
Jul 15
First Quarter
Jul 22
Full

Hourly Weather History & Observations

Time (EDT) Temp. Heat Index Dew Point Humidity Pressure Visibility Wind Dir Wind Speed Gust Speed Precip Events Conditions
12:53 AM 73.9 °F - 70.0 °F 87% 29.70 in 10.0 mi Calm Calm - N/A   Mostly Cloudy
1:53 AM 73.0 °F - 69.1 °F 87% 29.70 in 10.0 mi Calm Calm - N/A   Partly Cloudy
2:53 AM 73.0 °F - 69.1 °F 87% 29.68 in 10.0 mi Variable 4.6 mph - N/A   Clear
3:53 AM 73.0 °F - 68.0 °F 84% 29.66 in 10.0 mi WSW 4.6 mph - N/A   Clear
4:53 AM 72.0 °F - 68.0 °F 87% 29.66 in 10.0 mi WSW 4.6 mph - N/A   Clear
5:53 AM 72.0 °F - 66.9 °F 84% 29.67 in 10.0 mi West 4.6 mph - N/A   Clear
6:53 AM 72.0 °F - 66.0 °F 81% 29.67 in 10.0 mi West 4.6 mph - N/A   Clear
7:53 AM 73.9 °F - 66.0 °F 76% 29.67 in 10.0 mi Variable 6.9 mph - N/A   Clear
8:53 AM 75.9 °F - 66.0 °F 71% 29.67 in 10.0 mi WNW 8.1 mph - N/A   Clear
9:53 AM 78.1 °F - 66.0 °F 66% 29.66 in 10.0 mi WNW 9.2 mph - N/A   Clear
10:53 AM 80.1 °F 82.1 °F 66.0 °F 62% 29.66 in 10.0 mi West 8.1 mph 18.4 mph N/A   Clear
11:53 AM 82.9 °F 85.0 °F 66.0 °F 56% 29.65 in 10.0 mi West 11.5 mph 17.3 mph N/A   Clear
12:53 PM 84.9 °F 85.9 °F 63.0 °F 48% 29.65 in 10.0 mi WNW 19.6 mph 25.3 mph N/A   Partly Cloudy
1:08 PM 84.2 °F 85.0 °F 62.6 °F 48% 29.66 in 10.0 mi West 13.8 mph 25.3 mph N/A   Partly Cloudy
1:53 PM 84.9 °F 85.0 °F 61.0 °F 44% 29.63 in 10.0 mi WNW 15.0 mph 21.9 mph N/A   Partly Cloudy
2:53 PM 86.0 °F 86.1 °F 61.0 °F 43% 29.62 in 10.0 mi WNW 18.4 mph 23.0 mph N/A   Partly Cloudy
3:53 PM 86.0 °F 86.1 °F 61.0 °F 43% 29.61 in 10.0 mi WNW 12.7 mph 20.7 mph N/A   Partly Cloudy
4:53 PM 86.0 °F 85.4 °F 59.0 °F 40% 29.60 in 10.0 mi WNW 12.7 mph 21.9 mph N/A   Clear
5:13 PM 77.0 °F - 59.0 °F 54% 29.64 in 10.0 mi NNW 16.1 mph 26.5 mph N/A   Scattered Clouds
5:41 PM 73.4 °F - 57.2 °F 57% 29.65 in 10.0 mi North 10.4 mph - 0.00 in Thunderstorm Clear
5:53 PM 68.0 °F - 61.0 °F 78% 29.70 in 2.0 mi NW 21.9 mph 33.4 mph 0.08 in Rain , Thunderstorm Heavy Rain
5:56 PM 66.2 °F - 62.6 °F 88% 29.70 in 1.5 mi NW 18.4 mph 33.4 mph 0.02 in Rain , Thunderstorm Heavy Rain
6:01 PM 66.2 °F - 62.6 °F 88% 29.69 in 2.0 mi NNW 12.7 mph 29.9 mph 0.04 in Rain , Thunderstorm Heavy Thunderstorms and Rain
6:11 PM 66.2 °F - 62.6 °F 88% 29.66 in 4.0 mi NE 10.4 mph - 0.05 in Rain , Thunderstorm Thunderstorms and Rain
6:18 PM 66.2 °F - 62.6 °F 88% 29.66 in 8.0 mi NE 8.1 mph - 0.05 in Rain Light Rain
6:53 PM 66.0 °F - 64.0 °F 93% 29.65 in 10.0 mi Calm Calm - 0.05 in Rain Light Rain
7:53 PM 69.1 °F - 63.0 °F 81% 29.63 in 10.0 mi Calm Calm - 0.00 in   Partly Cloudy
8:53 PM 69.1 °F - 64.9 °F 87% 29.64 in 10.0 mi Calm Calm - N/A   Partly Cloudy
9:53 PM 64.9 °F - 63.0 °F 93% 29.64 in 10.0 mi Calm Calm - 0.00 in Rain Light Rain
10:53 PM 64.0 °F - 63.0 °F 96% 29.63 in 10.0 mi Calm Calm - 0.00 in   Clear
11:53 PM 66.0 °F - 63.0 °F 90% 29.64 in 7.0 mi West 4.6 mph - 0.02 in Rain Rain